Location: Cicognara
(44.9500°N, 10.4667°E)
Time: 23:03:33
(UTC+00:00)

ATLAS 3B R/B - Pass Details

Date: 20 June 2021
Orbit: 1003 x 1191 km, 63.8° (Epoch: 21 July)

Event Time Altitude Azimuth Distance (km) Brightness Sun altitude
Rises 21:48:17 0° 240° (WSW) 3,727 5.5 -18.5°
Reaches altitude 10° 21:50:59 10° 247° (WSW) 2,790 4.9 -18.7°
Maximum altitude 21:57:12 44° 318° (NW) 1,397 3.8 -19.1°
Drops below altitude 10° 22:03:40 10° 30° (NNE) 2,896 5.5 -19.4°
Sets 22:06:32 0° 37° (NE) 3,883 6.1 -19.6°
